TimeCDT,TemperatureF,Dew PointF,Humidity,Sea Level PressureIn,VisibilityMPH,Wind Direction,Wind SpeedMPH,Gust SpeedMPH,PrecipitationIn,Events,Conditions,WindDirDegrees,DateUTC
12:53 AM,28.9,28.0,96,29.77,10.0,SSE,3.5,-,N/A,,Clear,160,2013-10-20 05:53:00
1:53 AM,30.0,28.9,96,29.75,10.0,SSE,4.6,-,N/A,,Overcast,160,2013-10-20 06:53:00
2:53 AM,30.9,30.0,96,29.74,10.0,SSE,4.6,-,N/A,,Overcast,150,2013-10-20 07:53:00
3:53 AM,32.0,30.0,92,29.73,10.0,SE,4.6,-,N/A,,Overcast,130,2013-10-20 08:53:00
4:53 AM,32.0,30.9,96,29.73,4.0,SSE,6.9,-,0.00,Snow,Light Snow,150,2013-10-20 09:53:00
5:45 AM,32.0,32.0,100,29.67,2.5,SE,4.6,-,0.00,Snow,Light Snow,140,2013-10-20 10:45:00
5:53 AM,33.1,32.0,96,29.71,2.0,SSE,6.9,-,0.00,Snow,Light Snow,150,2013-10-20 10:53:00
6:03 AM,33.8,32.0,93,29.66,2.0,SSE,6.9,-,0.00,Snow,Light Snow,150,2013-10-20 11:03:00
6:17 AM,33.8,32.0,93,29.66,1.5,SE,6.9,-,0.00,Snow,Light Snow,140,2013-10-20 11:17:00
6:53 AM,33.1,32.0,96,29.70,1.8,SE,4.6,-,0.01,Snow,Light Snow,130,2013-10-20 11:53:00
7:02 AM,33.8,32.0,93,29.65,3.0,SE,6.9,-,0.00,Snow,Light Snow,130,2013-10-20 12:02:00
7:07 AM,33.8,32.0,93,29.65,3.0,SE,6.9,-,0.00,Snow,Light Snow,130,2013-10-20 12:07:00
7:15 AM,33.8,32.0,93,29.65,2.0,SE,5.8,-,0.00,Snow,Light Snow,140,2013-10-20 12:15:00
7:30 AM,32.0,32.0,100,29.65,1.5,SE,5.8,-,0.00,Snow,Light Snow,130,2013-10-20 12:30:00
7:38 AM,32.0,32.0,100,29.65,1.2,SE,5.8,-,0.01,Snow,Light Snow,140,2013-10-20 12:38:00
7:53 AM,32.0,32.0,100,29.70,1.2,SE,5.8,-,0.02,Snow,Light Snow,130,2013-10-20 12:53:00
8:08 AM,32.0,32.0,100,29.66,0.8,SE,4.6,-,0.00,Snow,Light Snow,130,2013-10-20 13:08:00
8:33 AM,32.0,32.0,100,29.66,0.5,ESE,4.6,-,0.02,Fog-Snow,Light Snow,120,2013-10-20 13:33:00
8:53 AM,32.0,32.0,100,29.72,0.5,ESE,3.5,-,0.03,Fog-Snow,Snow,110,2013-10-20 13:53:00
9:17 AM,32.0,32.0,100,29.67,0.5,East,4.6,-,0.02,Fog-Snow,Snow,100,2013-10-20 14:17:00
9:28 AM,32.0,32.0,100,29.67,0.5,East,3.5,-,0.03,Fog-Snow,Snow,100,2013-10-20 14:28:00
9:41 AM,32.0,32.0,100,29.67,0.5,East,3.5,-,0.04,Fog-Snow,Snow,90,2013-10-20 14:41:00
9:53 AM,32.0,32.0,100,29.73,0.5,ENE,3.5,-,0.04,Fog-Snow,Snow,70,2013-10-20 14:53:00
10:13 AM,33.8,32.0,93,29.68,0.8,East,4.6,-,0.02,Snow,Light Snow,80,2013-10-20 15:13:00
10:18 AM,33.8,32.0,93,29.68,1.0,ENE,3.5,-,0.02,Snow,Light Snow,70,2013-10-20 15:18:00
10:23 AM,33.8,32.0,93,29.68,0.8,ENE,4.6,-,0.02,Snow,Light Snow,70,2013-10-20 15:23:00
10:36 AM,33.8,32.0,93,29.68,1.0,ENE,5.8,-,0.03,Snow,Light Snow,60,2013-10-20 15:36:00
10:53 AM,33.1,32.0,96,29.74,0.5,ENE,4.6,-,0.04,Fog-Snow,Snow,60,2013-10-20 15:53:00
11:25 AM,33.8,32.0,93,29.69,1.0,NE,4.6,-,0.02,Snow,Light Snow,40,2013-10-20 16:25:00
11:53 AM,33.1,33.1,100,29.75,1.2,NE,4.6,-,0.03,Snow,Light Snow,40,2013-10-20 16:53:00
12:12 PM,33.8,33.8,100,29.70,1.2,NNE,3.5,-,0.00,Snow,Light Snow,20,2013-10-20 17:12:00
12:48 PM,33.8,33.8,100,29.70,2.0,NNE,4.6,-,0.01,Snow,Light Snow,20,2013-10-20 17:48:00
12:53 PM,34.0,33.1,96,29.76,2.5,NNE,6.9,-,0.01,Snow,Light Snow,20,2013-10-20 17:53:00
12:57 PM,33.8,33.8,100,29.70,3.0,North,6.9,-,0.00,Snow,Light Snow,10,2013-10-20 17:57:00
1:06 PM,33.8,33.8,100,29.70,2.5,NNE,5.8,-,0.00,Snow,Light Snow,20,2013-10-20 18:06:00
1:12 PM,33.8,33.8,100,29.70,4.0,North,6.9,-,0.01,Snow,Light Snow,10,2013-10-20 18:12:00
1:38 PM,35.6,33.8,93,29.71,5.0,North,6.9,-,0.01,Snow,Light Snow,10,2013-10-20 18:38:00
1:53 PM,35.1,33.1,92,29.76,6.0,North,9.2,-,0.01,Snow,Light Snow,350,2013-10-20 18:53:00
2:23 PM,35.6,33.8,93,29.71,10.0,North,9.2,-,0.00,,Overcast,350,2013-10-20 19:23:00
2:53 PM,36.0,34.0,93,29.77,10.0,NNW,12.7,-,0.00,,Overcast,340,2013-10-20 19:53:00
3:53 PM,36.0,34.0,93,29.79,8.0,NW,10.4,-,0.00,Rain,Light Rain,320,2013-10-20 20:53:00
4:09 PM,37.4,33.8,87,29.74,10.0,NNW,12.7,-,0.00,,Mostly Cloudy,330,2013-10-20 21:09:00
4:53 PM,37.9,33.1,83,29.80,10.0,NNW,10.4,-,0.01,,Mostly Cloudy,330,2013-10-20 21:53:00
5:29 PM,35.6,32.0,87,29.77,10.0,NW,12.7,-,N/A,,Mostly Cloudy,320,2013-10-20 22:29:00
5:45 PM,35.6,32.0,87,29.77,10.0,NW,12.7,-,N/A,,Mostly Cloudy,320,2013-10-20 22:45:00
5:51 PM,35.6,33.8,93,29.78,9.0,NW,12.7,-,N/A,,Overcast,320,2013-10-20 22:51:00
5:53 PM,35.1,33.1,92,29.83,9.0,NNW,15.0,-,0.00,,Overcast,330,2013-10-20 22:53:00
6:11 PM,35.6,32.0,87,29.79,10.0,NW,18.4,25.3,0.00,,Overcast,320,2013-10-20 23:11:00
6:45 PM,33.8,30.2,87,29.80,10.0,NW,16.1,24.2,0.00,,Overcast,320,2013-10-20 23:45:00
6:53 PM,34.0,30.9,89,29.86,10.0,NNW,12.7,21.9,0.00,,Overcast,330,2013-10-20 23:53:00
7:36 PM,33.8,28.4,81,29.83,10.0,NW,15.0,21.9,N/A,,Overcast,320,2013-10-21 00:36:00
7:53 PM,33.1,27.0,78,29.89,10.0,NW,16.1,25.3,N/A,,Overcast,320,2013-10-21 00:53:00
8:53 PM,30.9,21.9,69,29.92,10.0,NNW,12.7,21.9,N/A,,Overcast,330,2013-10-21 01:53:00
9:53 PM,30.9,23.0,72,29.92,10.0,NW,9.2,-,N/A,,Overcast,310,2013-10-21 02:53:00
10:09 PM,30.2,24.8,80,29.87,10.0,NW,13.8,20.7,N/A,,Overcast,320,2013-10-21 03:09:00
10:35 PM,30.2,23.0,75,29.87,10.0,NW,15.0,-,N/A,,Overcast,320,2013-10-21 03:35:00
10:53 PM,30.9,21.0,67,29.93,10.0,NW,20.7,25.3,N/A,,Overcast,310,2013-10-21 03:53:00
11:53 PM,30.0,19.9,66,29.94,10.0,WNW,10.4,-,N/A,,Overcast,300,2013-10-21 04:53:00